Weather History for Valdosta Regional, GA

Change the Weather History Date:

Sunday, February 26, 2012

  Actual Average Record
Temperature  
Mean Temperature 48 °F 57 °F  
Max Temperature 53 °F 70 °F 64 °F (2014)
Min Temperature 44 °F 44 °F 47 °F (2014)
Degree Days  
Heating Degree Days 16 9  
Month to date heating degree days 293  
Since 1 July heating degree days 1362  
Moisture  
Dew Point 44 °F    
Average Humidity 81    
Maximum Humidity 89    
Minimum Humidity 57    
Precipitation  
Precipitation 0.15 in - 0.59 in (2014)
Sea Level Pressure  
Sea Level Pressure 30.38 in    
Wind  
Wind Speed 3 mph (ENE)    
Max Wind Speed 9 mph    
Max Gust Speed -    
Visibility 7 miles    
Events Rain    
T = Trace of Precipitation, MM = Missing Value Source: NWS Daily Summary

Daily Weather History Graph

Daily Weather History Graph

Search for Another Location

Airport:

Trip Planner

Search our weather history database for the weather conditions in past years. The results will help you decide how hot, cold, wet, or windy it might be!

Date:

Astronomy

Feb. 26, 2012 Rise Set
Actual Time 7:03 AM EST 6:29 PM EST
Civil Twilight 6:39 AM EST 6:53 PM EST
Nautical Twilight 6:11 AM EST 7:21 PM EST
Astronomical Twilight 5:43 AM EST 7:49 PM EST
Moon 9:21 AM EST (2/26) 11:00 PM EST (2/26)
Length of Visible Light 12h 14m
Length of Day
11h 25m
Waxing Crescent, 20% of the Moon is Illuminated
Feb 26
Waxing Crescent
Feb 29
First Quarter
Mar 8
Full
Mar 14
Last Quarter
Mar 22
New

Hourly Weather History & Observations

Time (EST) Temp. Dew Point Humidity Pressure Visibility Wind Dir Wind Speed Gust Speed Precip Events Conditions
12:53 AM 44.1 °F 37.9 °F 79% 30.35 in 10.0 mi Calm Calm - N/A   Clear
2:53 AM 45.0 °F 39.0 °F 80% 30.37 in 10.0 mi Calm Calm - N/A   Clear
3:53 AM 46.9 °F 41.0 °F 80% 30.35 in 10.0 mi Calm Calm - N/A   Clear
4:53 AM 46.9 °F 39.9 °F 77% 30.34 in 10.0 mi Calm Calm - N/A   Clear
5:53 AM 48.0 °F 39.0 °F 71% 30.38 in 10.0 mi Calm Calm - N/A   Scattered Clouds
6:53 AM 48.0 °F 37.0 °F 66% 30.39 in 10.0 mi SE 4.6 mph - 0.00 in Rain Light Rain
7:53 AM 46.9 °F 39.9 °F 77% 30.42 in 10.0 mi Calm Calm - 0.00 in   Overcast
8:53 AM 48.9 °F 37.0 °F 64% 30.42 in 10.0 mi East 3.5 mph - 0.00 in   Overcast
9:53 AM 50.0 °F 35.1 °F 57% 30.44 in 10.0 mi NE 4.6 mph - 0.00 in   Overcast
10:53 AM 50.0 °F 37.9 °F 63% 30.44 in 10.0 mi East 4.6 mph - 0.01 in Rain Light Rain
11:53 AM 51.1 °F 39.0 °F 63% 30.43 in 10.0 mi East 5.8 mph - 0.00 in Rain Light Rain
12:53 PM 51.1 °F 44.1 °F 77% 30.43 in 5.0 mi ENE 4.6 mph - 0.03 in Rain Rain
1:53 PM 51.1 °F 46.0 °F 83% 30.41 in 10.0 mi NE 4.6 mph - 0.02 in   Overcast
2:22 PM 51.8 °F 46.4 °F 82% 30.36 in 8.0 mi Calm Calm - 0.01 in Rain Light Rain
2:53 PM 51.1 °F 46.9 °F 86% 30.38 in 10.0 mi NE 5.8 mph - 0.01 in   Overcast
3:21 PM 51.8 °F 46.4 °F 82% 30.37 in 10.0 mi NE 6.9 mph - 0.00 in   Overcast
3:32 PM 51.8 °F 46.4 °F 82% 30.37 in 3.0 mi NE 6.9 mph - 0.00 in Rain Light Rain
3:41 PM 51.8 °F 48.2 °F 88% 30.36 in 3.0 mi ENE 5.8 mph - 0.01 in Rain Light Rain
3:53 PM 51.1 °F 48.0 °F 89% 30.38 in 3.0 mi ENE 4.6 mph - 0.02 in Rain Light Rain
4:53 PM 51.1 °F 48.0 °F 89% 30.38 in 2.0 mi ENE 5.8 mph - 0.01 in Rain Light Rain
5:09 PM 51.8 °F 48.2 °F 88% 30.34 in 1.8 mi NE 9.2 mph - 0.03 in Rain Rain
5:20 PM 51.8 °F 48.2 °F 88% 30.34 in 2.5 mi NE 8.1 mph - 0.04 in Rain Light Rain
5:27 PM 51.8 °F 48.2 °F 88% 30.35 in 4.0 mi NE 6.9 mph - 0.04 in Rain Light Rain
5:53 PM 51.1 °F 48.0 °F 89% 30.38 in 3.0 mi NE 6.9 mph - 0.04 in   Overcast
6:53 PM 51.1 °F 48.0 °F 89% 30.37 in 5.0 mi ENE 8.1 mph - 0.00 in Rain Light Rain
7:53 PM 52.0 °F 48.9 °F 89% 30.38 in 6.0 mi ENE 5.8 mph - 0.01 in   Overcast
8:53 PM 52.0 °F 48.9 °F 89% 30.38 in 10.0 mi ENE 5.8 mph - 0.00 in   Overcast
9:53 PM 53.1 °F 50.0 °F 89% 30.39 in 10.0 mi East 5.8 mph - N/A   Overcast
10:53 PM 53.1 °F 50.0 °F 89% 30.38 in 9.0 mi East 5.8 mph - N/A   Overcast
11:53 PM 53.1 °F 50.0 °F 89% 30.38 in 7.0 mi East 3.5 mph - 0.00 in Rain Light Rain